Location: Miami, Florida
(25.6830°N, 80.1700°W)
Time: 15:04:50
(UTC-04:00)

Amateur Radio Satellites - All Passes

Search period start: 17 November 2017 14:34
Search period end: 18 November 2017 14:34
Location: Miami, Florida, 25.6830°N, 80.1700°W

Satellite Date Start Highest point End Downlink Frequencies (MHz)
Time Altitude Azimuth
JUGNU 17 Nov 14:35:24 14:37:22 12° 159° (SSE) 14:39:20 437.505
BEESAT 2 17 Nov 14:39:34 14:42:32 20° 58° (ENE) 14:45:27 435.950
AO-85 17 Nov 14:43:04 14:44:51 12° 55° (NE) 14:46:39 145.980
DX 1 17 Nov 14:57:10 15:01:34 81° 103° (ESE) 15:05:55 434.975-435.025
50 SAT 17 Nov 15:15:07 15:18:00 30° 285° (WNW) 15:20:52 437.505
BEESAT 3 17 Nov 15:15:52 15:19:10 27° 249° (WSW) 15:22:24 437.485
M-CUBED/EXP-1 PRIME 17 Nov 15:23:33 15:26:48 55° 256° (WSW) 15:30:14 437.505
O/OREOS (USA 219) 17 Nov 15:26:49 15:31:12 45° 289° (WNW) 15:35:38 437.305
UKube-1 17 Nov 15:48:53 15:52:50 36° 286° (WNW) 15:56:48 .
MOZHAYETS 4 17 Nov 16:03:39 16:07:56 40° 99° (E) 16:12:13
FALCONSAT 3 17 Nov 16:03:48 16:06:43 21° 11° (N) 16:09:37 435.103
ITAMSAT 1 17 Nov 16:13:51 16:19:00 63° 75° (ENE) 16:24:10 435.822/435.867
AO-7 17 Nov 16:14:55 16:23:13 86° 253° (WSW) 16:31:32 .
BEESAT 2 17 Nov 16:17:05 16:20:05 21° 250° (WSW) 16:23:02 435.950
AO-85 17 Nov 16:20:37 16:25:29 64° 246° (WSW) 16:30:38 145.980
JUGNU 17 Nov 16:21:04 16:25:57 27° 165° (SSE) 16:30:49 437.505
BEESAT 17 Nov 16:40:32 16:45:17 85° 103° (ESE) 16:50:02 436.000
ITUPSAT 1 17 Nov 16:47:16 16:52:02 83° 283° (WNW) 16:56:46 437.325
NO-84 17 Nov 16:55:25 16:58:54 56° 309° (NW) 17:02:41 435.350 FM
DOVE 4 17 Nov 16:59:22 17:03:06 23° 71° (ENE) 17:07:00 437.250
YUBILEINY 17 Nov 17:04:20 17:09:23 16° 73° (ENE) 17:14:23 435.215
CUBESAT XI-V 17 Nov 17:40:31 17:45:10 71° 284° (WNW) 17:49:51 437.345
FALCONSAT 3 17 Nov 17:42:30 17:46:11 65° 25° (NNE) 17:49:50 435.103
MOZHAYETS 4 17 Nov 17:42:41 17:44:40 13° 290° (WNW) 17:46:38
SRMSAT 17 Nov 17:58:32 18:01:56 16° 160° (SSE) 18:05:20 437.500
XW-2F 17 Nov 18:00:24 18:02:15 13° 72° (ENE) 18:04:07 145.980 - 146.000
JUGNU 17 Nov 18:09:05 18:14:37 44° 174° (S) 18:20:09 437.505
AO-7 17 Nov 18:14:52 18:16:33 11° 265° (W) 18:18:14 .
KKS-1 17 Nov 18:26:07 18:30:35 77° 103° (ESE) 18:35:00 437.445
KAITUO 1B 17 Nov 18:34:11 18:37:24 30° 75° (ENE) 18:40:39 145.475/437.950
DOVE 4 17 Nov 18:36:36 18:40:32 26° 264° (W) 18:44:41 437.250
XW-2D 17 Nov 18:37:44 18:41:23 56° 77° (ENE) 18:45:02 145.860 - 145.880
HO-68 17 Nov 18:46:30 18:52:19 27° 67° (ENE) 18:58:08 435.675
XW-2B 17 Nov 18:52:19 18:56:02 90° 271° (W) 18:59:46 145.730 - 145.750
CUTE-I 17 Nov 18:55:00 19:00:18 72° 76° (ENE) 19:05:40 437.470
YUBILEINY 17 Nov 18:57:57 19:06:46 75° 267° (W) 19:15:31 435.215
STARS 17 Nov 19:02:23 19:06:46 75° 102° (ESE) 19:11:07 437.465
RS-15 17 Nov 19:04:21 19:15:21 42° 106° (ESE) 19:26:27 29.354- 29.394
LilacSat-2 17 Nov 19:14:39 19:18:06 35° 261° (W) 19:21:35 437.200
XW-2C 17 Nov 19:17:58 19:21:23 34° 261° (W) 19:24:48 145.795 - 145.815
FALCONSAT 3 17 Nov 19:22:19 19:25:03 20° 215° (SW) 19:27:47 435.103
CUTE 1.7 + AOD 2 17 Nov 19:24:20 19:28:14 39° 75° (ENE) 19:32:09 437.475
NUDT-PHONESAT 17 Nov 19:25:54 19:29:21 41° 261° (W) 19:32:48 437.300
XW-2F 17 Nov 19:33:06 19:36:04 23° 263° (W) 19:39:04 145.980 - 146.000
CUBEBUG 2 17 Nov 19:37:10 19:41:23 34° 75° (ENE) 19:45:30 437.445
SRMSAT 17 Nov 19:45:26 19:50:41 33° 167° (SSE) 19:55:58 437.500
JUGNU 17 Nov 19:57:47 20:03:23 47° 184° (S) 20:08:59 437.505
AO-73 17 Nov 20:02:09 20:04:20 14° 71° (ENE) 20:06:29 145.935
SEEDS 17 Nov 20:02:44 20:06:51 74° 77° (ENE) 20:11:00 437.485
STRAND 1 17 Nov 20:10:07 20:14:44 34° 99° (E) 20:19:19 437.568
XW-2A 17 Nov 20:19:04 20:22:18 51° 77° (ENE) 20:25:32 145.665 - 145.685
AAUSAT CUBESAT 2 17 Nov 20:22:22 20:26:18 47° 76° (ENE) 20:30:15 437.432
Oscar 11 17 Nov 20:22:54 20:25:26 15° 71° (ENE) 20:27:58 .
HO-68 17 Nov 20:32:59 20:39:40 42° 259° (W) 20:46:25 435.675
ZACube-1 17 Nov 20:42:17 20:46:37 53° 76° (ENE) 20:50:50 437.345
UWE-3 17 Nov 20:42:22 20:46:56 70° 259° (W) 20:51:24 435.000/436.395/437.385
CUBEBUG 2 17 Nov 21:15:08 21:17:55 16° 264° (W) 21:20:40 437.445
RS-15 17 Nov 21:15:54 21:27:30 48° 302° (WNW) 21:39:15 29.354- 29.394
DELFI C3 17 Nov 21:32:27 21:35:08 18° 72° (ENE) 21:37:50 145.870
SRMSAT 17 Nov 21:33:52 21:39:35 48° 176° (S) 21:45:19 437.500
AO-73 17 Nov 21:36:13 21:40:13 34° 261° (W) 21:44:09 145.935
FO-29 17 Nov 21:41:15 21:49:03 67° 101° (E) 21:56:15 435.910
JUGNU 17 Nov 21:46:56 21:52:06 32° 193° (SSW) 21:57:17 437.505
STRAND 1 17 Nov 21:50:05 21:53:35 19° 290° (WNW) 21:57:04 437.568
Max Valier Satellite 17 Nov 21:54:26 21:57:17 22° 74° (ENE) 22:00:08 145.860
Oscar 11 17 Nov 21:57:33 22:01:16 29° 262° (W) 22:04:59 .
nSIGHT-1 17 Nov 22:00:20 22:03:30 60° 129° (SE) 22:06:39 .
EO-88 17 Nov 22:02:34 22:05:07 18° 73° (ENE) 22:07:40 145.990 - 145.960
UNISAT 6 17 Nov 22:10:31 22:13:09 16° 96° (E) 22:15:46 437.425
TIGRISAT 17 Nov 22:15:54 22:18:39 17° 96° (E) 22:21:23 435.000
ISS 17 Nov 22:31:23 22:34:38 64° 312° (NW) 22:37:52 437.550
PRISM 17 Nov 22:48:39 22:50:50 14° 96° (E) 22:53:01 437.425
DELFI C3 17 Nov 23:06:43 23:09:40 20° 263° (W) 23:12:37 145.870
SRMSAT 17 Nov 23:22:52 23:28:32 45° 186° (S) 23:34:14 437.500
FO-29 17 Nov 23:28:04 23:33:11 19° 295° (WNW) 23:38:08 435.910
Max Valier Satellite 17 Nov 23:29:05 23:30:58 14° 264° (W) 23:32:53 145.860
SO-50 17 Nov 23:29:55 23:34:21 68° 296° (WNW) 23:38:48 436.795
AIST 2D 17 Nov 23:34:28 23:35:53 12° 96° (E) 23:37:17 435.315
EO-88 17 Nov 23:36:21 23:38:35 16° 264° (W) 23:40:49 145.990 - 145.960
JUGNU 17 Nov 23:37:20 23:40:41 16° 200° (SSW) 23:44:04 437.505
UNISAT 6 17 Nov 23:46:14 23:49:47 26° 287° (WNW) 23:53:19 437.425
TIGRISAT 17 Nov 23:51:46 23:55:14 25° 287° (WNW) 23:58:41 435.000
ESTCUBE 1 18 Nov 00:08:34 00:13:00 73° 76° (ENE) 00:17:27 437.505/2401.250
LO-87 18 Nov 00:11:58 00:15:30 56° 259° (W) 00:19:04 145.935 - 145.965
DUCHIFAT 1 18 Nov 00:21:48 00:23:19 12° 95° (E) 00:24:51 145.980
PRISM 18 Nov 00:22:26 00:26:03 29° 286° (WNW) 00:29:37 437.425
EO-79 18 Nov 00:22:57 00:25:46 18° 97° (E) 00:28:35 145.935-145.965
NANOSAT C BR1 18 Nov 00:28:49 00:31:42 18° 97° (E) 00:34:34 145.865
POLYITAN 1 18 Nov 00:36:29 00:40:01 26° 98° (E) 00:43:33 437.675
SPROUT 18 Nov 00:38:19 00:42:05 31° 74° (ENE) 00:45:53 437.525
VELOX 1 18 Nov 00:47:12 00:50:47 25° 72° (ENE) 00:54:24 145.980
QB50P2 18 Nov 00:58:55 01:03:05 63° 101° (E) 01:07:12 145.880/145.840
PCSat 18 Nov 00:59:39 01:04:14 29° 107° (ESE) 01:08:49 145.827
AIST 2D 18 Nov 01:06:09 01:08:57 22° 285° (WNW) 01:11:44 435.315
NO-84 18 Nov 01:12:11 01:15:55 30° 47° (NE) 01:19:33 435.350 FM
SRMSAT 18 Nov 01:12:23 01:17:24 28° 195° (SSW) 01:22:28 437.500
BUGSAT 1 18 Nov 01:28:44 01:31:21 17° 97° (E) 01:33:59 437.445
50 SAT 18 Nov 01:35:09 01:37:03 15° 73° (ENE) 01:38:57 437.505
O/OREOS (USA 219) 18 Nov 01:44:53 01:49:25 89° 59° (ENE) 01:53:54 437.305
DX 1 18 Nov 01:45:05 01:48:34 24° 72° (ENE) 01:52:04 434.975-435.025
DUCHIFAT 1 18 Nov 01:55:14 01:58:58 33° 286° (WNW) 02:02:43 145.980
EO-79 18 Nov 01:58:04 02:01:23 23° 287° (WNW) 02:04:43 145.935-145.965
NANOSAT C BR1 18 Nov 02:03:59 02:07:15 23° 287° (WNW) 02:10:30 145.865
POLYITAN 1 18 Nov 02:13:00 02:15:30 16° 289° (WNW) 02:18:01 437.675
SPROUT 18 Nov 02:15:42 02:17:56 14° 264° (W) 02:20:10 437.525
VELOX 1 18 Nov 02:23:58 02:27:05 19° 263° (W) 02:30:14 145.980
UKube-1 18 Nov 02:34:28 02:38:42 60° 76° (ENE) 02:42:57 .
PCSat 18 Nov 02:43:02 02:47:28 26° 299° (WNW) 02:51:57 145.827
Gurwin Techsat 1B 18 Nov 02:45:38 02:50:49 52° 101° (E) 02:55:57 435.225
NO-84 18 Nov 02:49:59 02:53:04 20° 240° (WSW) 02:56:03 435.350 FM
Oscar 19 18 Nov 02:50:41 02:55:51 89° 101° (E) 03:01:02 437.125/150
MOZHAYETS 4 18 Nov 02:58:49 03:01:29 15° 70° (ENE) 03:04:08
BUGSAT 1 18 Nov 03:03:27 03:06:34 22° 287° (WNW) 03:09:40 437.445
SRMSAT 18 Nov 03:03:54 03:06:11 12° 202° (SSW) 03:08:27 437.500
50 SAT 18 Nov 03:07:04 03:08:58 15° 263° (W) 03:10:52 437.505
M-CUBED/EXP-1 PRIME 18 Nov 03:08:58 03:12:35 23° 102° (ESE) 03:16:13 437.505
BEESAT 3 18 Nov 03:20:42 03:23:17 17° 109° (ESE) 03:25:53 437.485
DX 1 18 Nov 03:21:30 03:24:36 19° 263° (W) 03:27:43 434.975-435.025
BEESAT 18 Nov 03:38:49 03:43:12 37° 73° (ENE) 03:47:35 436.000
ITUPSAT 1 18 Nov 03:45:45 03:50:17 44° 74° (ENE) 03:54:49 437.325
RS-15 18 Nov 04:18:14 04:26:30 21° 46° (NE) 04:34:26 29.354- 29.394
BEESAT 2 18 Nov 04:22:23 04:25:34 24° 110° (ESE) 04:28:49 435.950
AO-7 18 Nov 04:25:53 04:34:03 56° 104° (ESE) 04:42:11 .
Gurwin Techsat 1B 18 Nov 04:27:41 04:30:13 14° 292° (WNW) 04:32:47 435.225
MOZHAYETS 4 18 Nov 04:34:09 04:38:17 33° 261° (W) 04:42:25
ITAMSAT 1 18 Nov 04:35:09 04:40:07 44° 101° (E) 04:45:02 435.822/435.867
CUBESAT XI-V 18 Nov 04:35:33 04:39:50 42° 75° (ENE) 04:44:10 437.345
M-CUBED/EXP-1 PRIME 18 Nov 04:43:01 04:46:45 25° 291° (WNW) 04:50:33 437.505
AO-85 18 Nov 04:49:20 04:51:43 16° 109° (ESE) 04:54:08 145.980
BEESAT 3 18 Nov 04:57:20 05:00:34 24° 301° (WNW) 05:03:50 437.485
DOVE 4 18 Nov 05:07:57 05:10:05 13° 93° (E) 05:12:11 437.250
KKS-1 18 Nov 05:16:27 05:20:06 25° 72° (ENE) 05:23:45 437.445
BEESAT 18 Nov 05:18:20 05:20:58 15° 264° (W) 05:23:35 436.000
ITUPSAT 1 18 Nov 05:26:14 05:28:10 12° 265° (W) 05:30:06 437.325
STARS 18 Nov 05:51:19 05:54:49 23° 72° (ENE) 05:58:20 437.465
YUBILEINY 18 Nov 05:54:06 06:00:45 25° 85° (E) 06:07:25 435.215
BEESAT 2 18 Nov 06:00:26 06:03:11 18° 302° (WNW) 06:05:58 435.950
nSIGHT-1 18 Nov 06:10:16 06:12:27 17° 42° (NE) 06:14:38 .
CUBESAT XI-V 18 Nov 06:15:41 06:17:16 12° 265° (W) 06:18:52 437.345
ITAMSAT 1 18 Nov 06:16:13 06:19:07 15° 292° (WNW) 06:22:02 435.822/435.867
AO-7 18 Nov 06:19:50 06:26:12 25° 296° (WNW) 06:32:37 .
XW-2D 18 Nov 06:20:08 06:21:21 11° 95° (E) 06:22:34 145.860 - 145.880
RS-15 18 Nov 06:28:42 06:40:22 87° 246° (WSW) 06:51:24 29.354- 29.394
AO-85 18 Nov 06:28:46 06:31:50 22° 301° (WNW) 06:34:56 145.980
XW-2B 18 Nov 06:33:33 06:36:06 17° 97° (E) 06:38:39 145.730 - 145.750
ISS 18 Nov 06:42:00 06:44:57 31° 45° (NE) 06:47:53 437.550
DOVE 4 18 Nov 06:42:59 06:47:56 48° 285° (WNW) 06:52:37 437.250
KKS-1 18 Nov 06:53:19 06:56:31 19° 263° (W) 06:59:44 437.445
LilacSat-2 18 Nov 06:55:22 06:58:59 40° 99° (E) 07:02:36 437.200
XW-2C 18 Nov 06:57:57 07:01:33 40° 99° (E) 07:05:08 145.795 - 145.815
NUDT-PHONESAT 18 Nov 07:03:44 07:07:01 29° 99° (E) 07:10:17 437.300
XW-2F 18 Nov 07:11:57 07:15:41 60° 100° (E) 07:19:26 145.980 - 146.000
STRAND 1 18 Nov 07:18:32 07:22:23 22° 71° (ENE) 07:26:16 437.568
CUTE 1.7 + AOD 2 18 Nov 07:18:36 07:20:45 14° 95° (E) 07:22:52 437.475
CUTE-I 18 Nov 07:20:26 07:25:43 58° 101° (E) 07:30:57 437.470
STARS 18 Nov 07:27:42 07:30:59 20° 263° (W) 07:34:17 437.465
CUBEBUG 2 18 Nov 07:38:10 07:39:37 12° 95° (E) 07:41:04 437.445
nSIGHT-1 18 Nov 07:46:04 07:48:37 22° 233° (SW) 07:51:10 .
KAITUO 1B 18 Nov 07:46:11 07:49:52 53° 283° (WNW) 07:53:33 145.475/437.950
YUBILEINY 18 Nov 07:48:34 07:56:55 51° 278° (W) 08:05:23 435.215
FO-29 18 Nov 07:49:32 07:50:35 10° 61° (ENE) 07:51:40 435.910
XW-2D 18 Nov 07:52:10 07:55:28 29° 285° (WNW) 07:58:47 145.860 - 145.880
SEEDS 18 Nov 07:55:01 07:58:24 23° 97° (E) 08:01:45 437.485
XW-2B 18 Nov 08:07:21 08:10:06 19° 287° (WNW) 08:12:51 145.730 - 145.750
HO-68 18 Nov 08:09:07 08:16:14 63° 103° (ESE) 08:23:17 435.675
SO-50 18 Nov 08:10:42 08:12:48 13° 55° (NE) 08:14:54 436.795
AAUSAT CUBESAT 2 18 Nov 08:13:40 08:16:01 15° 96° (E) 08:18:20 437.432
ISS 18 Nov 08:19:50 08:21:09 12° 235° (SW) 08:22:26 437.550
ZACube-1 18 Nov 08:39:28 08:42:23 18° 97° (E) 08:45:18 437.345
NUDT-PHONESAT 18 Nov 08:39:43 08:40:29 11° 289° (WNW) 08:41:15 437.300
UWE-3 18 Nov 08:40:14 08:44:09 41° 99° (E) 08:48:04 435.000/436.395/437.385
RS-15 18 Nov 08:46:19 08:51:01 13° 260° (W) 08:55:40 29.354- 29.394
CUTE 1.7 + AOD 2 18 Nov 08:52:45 08:56:32 31° 286° (WNW) 09:00:19 437.475
STRAND 1 18 Nov 08:56:49 09:01:18 30° 261° (W) 09:05:48 437.568
CUTE-I 18 Nov 09:03:07 09:05:10 12° 293° (WNW) 09:07:14 437.470
CUBEBUG 2 18 Nov 09:12:32 09:16:15 33° 285° (WNW) 09:19:57 437.445
XW-2A 18 Nov 09:20:42 09:23:53 40° 283° (WNW) 09:27:02 145.665 - 145.685
FO-29 18 Nov 09:28:19 09:34:22 89° 257° (WSW) 09:41:19 435.910
SEEDS 18 Nov 09:30:52 09:33:50 19° 288° (WNW) 09:36:48 437.485
AO-73 18 Nov 09:31:35 09:35:43 84° 101° (E) 09:39:54 145.935
AAUSAT CUBESAT 2 18 Nov 09:47:48 09:51:23 28° 286° (WNW) 09:54:57 437.432
SO-50 18 Nov 09:48:55 09:53:27 50° 247° (WSW) 09:58:02 436.795
Oscar 11 18 Nov 09:51:59 09:56:19 84° 284° (WNW) 10:00:38 .
HO-68 18 Nov 09:58:44 10:03:17 18° 295° (WNW) 10:07:49 435.675
ZACube-1 18 Nov 10:15:20 10:18:31 22° 287° (WNW) 10:21:42 437.345
FALCONSAT 3 18 Nov 10:30:49 10:34:11 35° 148° (SSE) 10:37:35 435.103
UNISAT 6 18 Nov 10:35:26 10:40:06 89° 270° (W) 10:44:41 437.425
TIGRISAT 18 Nov 10:40:45 10:45:25 85° 258° (WSW) 10:50:01 435.000
DELFI C3 18 Nov 10:50:12 10:54:12 89° 285° (WNW) 10:58:10 145.870
PRISM 18 Nov 11:02:37 11:06:38 59° 76° (ENE) 11:10:42 437.425
Max Valier Satellite 18 Nov 11:04:40 11:08:20 82° 283° (WNW) 11:12:00 145.860
EO-88 18 Nov 11:11:03 11:14:42 79° 102° (ESE) 11:18:20 145.990 - 145.960
AIST 2D 18 Nov 11:31:45 11:34:45 29° 76° (ENE) 11:37:47 435.315
PCSat 18 Nov 11:38:05 11:43:16 45° 64° (ENE) 11:48:25 145.827
QB50P2 18 Nov 11:44:30 11:47:12 17° 71° (ENE) 11:49:53 145.880/145.840
LO-87 18 Nov 11:47:19 11:49:52 19° 97° (E) 11:52:25 145.935 - 145.965
ESTCUBE 1 18 Nov 12:09:23 12:13:21 30° 98° (E) 12:17:18 437.505/2401.250
FALCONSAT 3 18 Nov 12:09:45 12:13:15 40° 340° (NNW) 12:16:45 435.103
DUCHIFAT 1 18 Nov 12:38:00 12:42:08 54° 76° (ENE) 12:46:15 145.980
EO-79 18 Nov 12:40:58 12:45:13 84° 78° (ENE) 12:49:29 145.935-145.965
NANOSAT C BR1 18 Nov 12:46:30 12:50:45 86° 75° (ENE) 12:54:59 145.865
POLYITAN 1 18 Nov 12:55:23 12:59:37 62° 260° (W) 13:03:49 437.675
QB50P2 18 Nov 13:19:06 13:22:42 26° 262° (W) 13:26:17 145.880/145.840
LO-87 18 Nov 13:21:03 13:23:02 14° 288° (WNW) 13:25:00 145.935 - 145.965
BEESAT 3 18 Nov 13:22:02 13:24:13 14° 57° (ENE) 13:26:23 437.485
PCSat 18 Nov 13:23:08 13:26:12 15° 255° (WSW) 13:29:16 145.827
BUGSAT 1 18 Nov 13:43:30 13:47:43 78° 77° (ENE) 13:51:56 437.445
ESTCUBE 1 18 Nov 13:46:56 13:49:50 17° 289° (WNW) 13:52:44 437.505/2401.250
FALCONSAT 3 18 Nov 13:50:12 13:52:53 18° 354° (N) 13:55:33 435.103
Gurwin Techsat 1B 18 Nov 13:58:44 14:03:34 37° 73° (ENE) 14:08:24 435.225
Oscar 19 18 Nov 13:59:19 14:04:18 55° 75° (ENE) 14:09:17 437.125/150
SPROUT 18 Nov 14:07:12 14:11:11 41° 285° (WNW) 14:15:09 437.525
O/OREOS (USA 219) 18 Nov 14:10:11 14:14:05 28° 102° (ESE) 14:17:59 437.305
JUGNU 18 Nov 14:19:32 14:22:14 13° 159° (SSE) 14:24:55 437.505
VELOX 1 18 Nov 14:20:34 14:24:52 51° 285° (WNW) 14:29:09 145.980
BEESAT 2 18 Nov 14:24:48 14:27:51 21° 59° (ENE) 14:30:51 435.950
